Back to catalog

STARLINK-5680

AliveCommunicationsVLEO
NORAD 55455·PAYLOAD·🇺🇸 United States

Launched Feb 2, 2023 from Cape Canaveral Space Force Station

Loading…

Next Passes (next 24 hours)

TLE

FreshSource: CelesTrak SupGP

Epoch: Sep 14, 2026, 21:10 UTC

1 55455C 23015G   26257.88243056 -.00045498  00000+0 -16477-2 0  2578
2 55455  43.0039 340.6756 0002155 285.4745   8.4753 15.27603912    18

Track STARLINK-5680 in real time with AllMySat

Download on the App Store